Location: Estes Par
(40.3770°N, 105.5210°W)
Time: 14:37:39
(UTC-07:00)

Oscar 11 - Visible Passes

Search period start: 18 January 2019 00:00
Search period end: 28 January 2019 00:00
Orbit: 613 x 626 km, 97.6° (Epoch: 18 January)

Date Brightness Start Highest point End Pass type
(mag) Time Alt. Az. Time Alt. Az. Time Alt. Az.
18 Jan 8.1 18:08:44 10° ESE 18:12:06 23° ENE 18:15:27 10° NNE visible
18 Jan 8.8 19:44:16 10° SSW 19:48:04 30° W 19:51:52 10° NW visible
19 Jan 7.6 18:25:15 10° SE 18:29:08 34° ENE 18:33:01 10° N visible
19 Jan 9.6 20:02:11 10° SW 20:05:20 20° W 20:08:29 10° NW visible
20 Jan 7.1 18:42:02 10° SSE 18:46:12 53° ENE 18:50:23 10° N visible
20 Jan 10.1 20:20:44 10° WSW 20:22:39 13° W 20:24:34 10° WNW visible
21 Jan 6.9 18:59:02 10° SSE 19:03:19 84° ENE 19:07:38 10° N visible
22 Jan 10.1 06:47:44 10° NE 06:50:24 16° E 06:53:02 10° SE visible
22 Jan 8.8 17:43:11 10° E 17:44:54 12° ENE 17:46:37 10° NE visible
22 Jan 7.5 19:16:15 10° S 19:20:29 61° W 19:24:45 10° NNW visible
23 Jan 8.4 17:58:56 10° ESE 18:01:51 18° ENE 18:04:48 10° NNE visible
23 Jan 8.4 19:33:41 10° SSW 19:37:41 38° W 19:41:43 10° NNW visible
24 Jan 7.9 18:15:16 10° SE 18:18:52 27° ENE 18:22:29 10° NNE visible
24 Jan 9.2 19:51:24 10° SSW 19:54:56 25° W 19:58:29 10° NW visible
25 Jan 7.4 18:31:54 10° SE 18:35:55 41° ENE 18:39:57 10° N visible
25 Jan 9.8 20:09:31 10° SW 20:12:13 16° W 20:14:56 10° NW visible
26 Jan 6.9 18:48:47 10° SSE 18:53:01 65° ENE 18:57:16 10° N visible
26 Jan 10.3 20:29:01 10° W 20:29:33 10° W 20:30:06 10° W visible
27 Jan 10.4 06:38:09 10° ENE 06:39:59 12° E 06:41:47 10° ESE visible
27 Jan 7.0 19:05:52 10° S 19:10:09 80° WSW 19:14:27 10° NNW visible
